EN

Hourly Weather Aadorf

Today, 2 December, Wednesday

Time Temperature Precipitation Wind Pressure Humidity
00:00 -2°C° 0.1 mm 0 mps 707 mmHg 97%
01:00 -1°C° 0.1 mm 0 mps 707 mmHg 98%
02:00 -2°C° 0 mm 0 mps 707 mmHg 98%
03:00 -2°C° 0 mm 0 mps 706 mmHg 97%
04:00 -2°C° 0 mm 0 mps 706 mmHg 97%
05:00 -2°C° 0 mm 0 mps 706 mmHg 97%
06:00 -2°C° 0 mm 0 mps 706 mmHg 97%
07:00 -2°C° 0 mm 0 mps 706 mmHg 97%
08:00 0°C° 0.1 mm 1 mps 706 mmHg 95%
09:00 0°C° 0.1 mm 1 mps 706 mmHg 94%
10:00 0°C° 0.1 mm 1 mps 705 mmHg 92%
11:00 +1°C° 0 mm 1 mps 705 mmHg 90%
12:00 +1°C° 0 mm 1 mps 705 mmHg 89%
13:00 -1°C° 0 mm 2 mps 704 mmHg 87%
14:00 +1°C° 0 mm 1 mps 704 mmHg 89%
15:00 +1°C° 0 mm 1 mps 704 mmHg 90%
16:00 -1°C° 0 mm 0 mps 704 mmHg 92%
17:00 -1°C° 0 mm 0 mps 704 mmHg 93%
18:00 -1°C° 0 mm 0 mps 704 mmHg 94%
19:00 -1°C° 0 mm 0 mps 704 mmHg 95%
20:00 -2°C° 0 mm 0 mps 704 mmHg 95%
21:00 -1°C° 0 mm 1 mps 704 mmHg 95%
22:00 -1°C° 0 mm 1 mps 704 mmHg 96%
23:00 -2°C° 0 mm 1 mps 704 mmHg 95%

Tomorrow, 3 December, Thursday

Time Temperature Precipitation Wind Pressure Humidity
00:00 -2°C° 0 mm 1 mps 704 mmHg 95%
01:00 -3°C° 0 mm 1 mps 703 mmHg 95%
02:00 -3°C° 0 mm 1 mps 703 mmHg 94%
03:00 -3°C° 0 mm 1 mps 703 mmHg 94%
04:00 -4°C° 0 mm 1 mps 702 mmHg 93%
05:00 -4°C° 0 mm 1 mps 702 mmHg 93%
06:00 -4°C° 0 mm 1 mps 702 mmHg 93%
07:00 -4°C° 0 mm 1 mps 702 mmHg 92%
08:00 -3°C° 0 mm 1 mps 701 mmHg 90%
09:00 -2°C° 0 mm 1 mps 701 mmHg 87%
10:00 -1°C° 0 mm 1 mps 701 mmHg 84%
11:00 0°C° 0 mm 1 mps 700 mmHg 81%
12:00 +1°C° 0 mm 1 mps 700 mmHg 78%
13:00 +2°C° 0 mm 1 mps 699 mmHg 75%
14:00 +1°C° 0 mm 1 mps 699 mmHg 79%
15:00 +1°C° 0 mm 1 mps 698 mmHg 83%
16:00 -1°C° 0 mm 0 mps 697 mmHg 86%
17:00 -2°C° 0 mm 0 mps 697 mmHg 87%
18:00 -1°C° 0 mm 1 mps 697 mmHg 87%
19:00 -2°C° 0 mm 1 mps 696 mmHg 87%
20:00 -2°C° 0 mm 1 mps 696 mmHg 86%
21:00 -2°C° 0 mm 1 mps 696 mmHg 85%
22:00 -2°C° 0 mm 0 mps 695 mmHg 84%
23:00 -1°C° 0 mm 1 mps 694 mmHg 84%

Day after tomorrow, 4 December, Friday

Time Temperature Precipitation Wind Pressure Humidity
00:00 -1°C° 0 mm 1 mps 694 mmHg 84%
01:00 -1°C° 0 mm 1 mps 693 mmHg 84%
02:00 -1°C° 0 mm 1 mps 693 mmHg 84%
03:00 -1°C° 0 mm 1 mps 692 mmHg 84%
04:00 -1°C° 0 mm 1 mps 691 mmHg 84%
05:00 -1°C° 0 mm 1 mps 691 mmHg 84%
06:00 0°C° 0 mm 1 mps 691 mmHg 85%
07:00 0°C° 0 mm 1 mps 690 mmHg 85%
08:00 0°C° 0 mm 1 mps 690 mmHg 83%
09:00 +1°C° 0 mm 1 mps 690 mmHg 82%
10:00 +2°C° 0 mm 1 mps 689 mmHg 80%
11:00 +2°C° 0 mm 1 mps 689 mmHg 80%
12:00 +3°C° 0 mm 1 mps 689 mmHg 80%
13:00 +4°C° 0 mm 1 mps 689 mmHg 81%
14:00 +3°C° 0 mm 1 mps 688 mmHg 84%
15:00 +2°C° 0 mm 1 mps 688 mmHg 87%
16:00 +1°C° 0 mm 1 mps 688 mmHg 91%
17:00 +1°C° 0 mm 1 mps 688 mmHg 91%
18:00 0°C° 0 mm 1 mps 688 mmHg 92%
19:00 -1°C° 0 mm 1 mps 688 mmHg 93%
20:00 -1°C° 0 mm 1 mps 688 mmHg 93%
21:00 -1°C° 0 mm 1 mps 688 mmHg 94%
22:00 -1°C° 0 mm 1 mps 689 mmHg 95%
23:00 0°C° 0.6 mm 1 mps 689 mmHg 96%

5 December, Saturday

Time Temperature Precipitation Wind Pressure Humidity
00:00 0°C° 0.6 mm 1 mps 689 mmHg 97%
01:00 0°C° 0.6 mm 1 mps 690 mmHg 98%
02:00 +1°C° 0.3 mm 1 mps 690 mmHg 98%
03:00 0°C° 0.3 mm 0 mps 690 mmHg 98%
04:00 0°C° 0.3 mm 0 mps 690 mmHg 98%
05:00 0°C° 0.9 mm 0 mps 690 mmHg 98%
06:00 0°C° 0.9 mm 0 mps 690 mmHg 99%
07:00 0°C° 0.9 mm 0 mps 690 mmHg 99%
08:00 0°C° 1.7 mm 0 mps 690 mmHg 99%
09:00 0°C° 1.7 mm 0 mps 690 mmHg 99%
10:00 0°C° 1.7 mm 0 mps 690 mmHg 99%
11:00 +1°C° 1.2 mm 1 mps 690 mmHg 99%
12:00 +1°C° 1.2 mm 1 mps 690 mmHg 99%
13:00 +1°C° 1.2 mm 1 mps 690 mmHg 99%
14:00 +1°C° 0.9 mm 1 mps 690 mmHg 99%
15:00 +1°C° 0.9 mm 1 mps 691 mmHg 99%
16:00 +1°C° 0.9 mm 1 mps 691 mmHg 99%
17:00 +1°C° 0.6 mm 1 mps 691 mmHg 99%
18:00 0°C° 0.6 mm 0 mps 692 mmHg 99%
19:00 -1°C° 0.6 mm 0 mps 692 mmHg 99%
20:00 -1°C° 0.1 mm 0 mps 693 mmHg 98%
21:00 0°C° 0.1 mm 1 mps 693 mmHg 98%
22:00 0°C° 0.1 mm 1 mps 693 mmHg 97%
23:00 -1°C° 0 mm 1 mps 693 mmHg 96%

6 December, Sunday

Time Temperature Precipitation Wind Pressure Humidity
00:00 -2°C° 0 mm 1 mps 693 mmHg 95%
01:00 -3°C° 0 mm 1 mps 693 mmHg 94%
02:00 -3°C° 0 mm 1 mps 693 mmHg 93%
03:00 -3°C° 0 mm 1 mps 692 mmHg 93%
04:00 -4°C° 0 mm 1 mps 692 mmHg 93%
05:00 -4°C° 0 mm 1 mps 692 mmHg 92%
06:00 -4°C° 0 mm 1 mps 693 mmHg 92%
07:00 -6°C° 0 mm 1 mps 693 mmHg 92%
08:00 -4°C° 0 mm 1 mps 693 mmHg 91%
09:00 -3°C° 0 mm 1 mps 693 mmHg 91%
10:00 -2°C° 0 mm 1 mps 694 mmHg 90%
11:00 -1°C° 0 mm 1 mps 694 mmHg 90%
12:00 -1°C° 0 mm 0 mps 694 mmHg 90%
13:00 -1°C° 0 mm 0 mps 694 mmHg 91%
14:00 -1°C° 0 mm 0 mps 694 mmHg 92%
15:00 -2°C° 0 mm 0 mps 694 mmHg 93%
16:00 -3°C° 0 mm 0 mps 694 mmHg 94%
17:00 -2°C° 0 mm 1 mps 694 mmHg 93%
18:00 -3°C° 0 mm 1 mps 694 mmHg 93%
19:00 -3°C° 0 mm 1 mps 695 mmHg 92%
20:00 -3°C° 0 mm 1 mps 695 mmHg 91%
21:00 -3°C° 0 mm 1 mps 696 mmHg 91%
22:00 -3°C° 0 mm 1 mps 696 mmHg 91%
23:00 -3°C° 0.3 mm 1 mps 697 mmHg 92%

7 December, Monday

Time Temperature Precipitation Wind Pressure Humidity
00:00 -2°C° 0.3 mm 1 mps 697 mmHg 94%
01:00 -3°C° 0.3 mm 2 mps 698 mmHg 96%
02:00 -1°C° 0.1 mm 1 mps 698 mmHg 95%
03:00 -2°C° 0.1 mm 1 mps 699 mmHg 95%
04:00 -2°C° 0.1 mm 1 mps 699 mmHg 95%
05:00 -2°C° 0 mm 1 mps 699 mmHg 94%
06:00 -2°C° 0 mm 1 mps 700 mmHg 94%
07:00 -2°C° 0 mm 1 mps 700 mmHg 93%
08:00 -2°C° 0 mm 1 mps 701 mmHg 93%
09:00 -2°C° 0 mm 0 mps 701 mmHg 93%
10:00 -1°C° 0 mm 0 mps 702 mmHg 93%
11:00 -1°C° 0 mm 0 mps 702 mmHg 94%
12:00 0°C° 0 mm 0 mps 702 mmHg 95%
13:00 +1°C° 0 mm 0 mps 701 mmHg 96%
14:00 0°C° 0 mm 0 mps 701 mmHg 96%
15:00 0°C° 0 mm 0 mps 702 mmHg 96%
16:00 -1°C° 0 mm 0 mps 702 mmHg 96%
17:00 -2°C° 0 mm 0 mps 702 mmHg 95%
18:00 -2°C° 0 mm 0 mps 702 mmHg 95%
19:00 -3°C° 0 mm 0 mps 703 mmHg 94%
20:00 -3°C° 0 mm 0 mps 703 mmHg 93%
21:00 -4°C° 0 mm 0 mps 703 mmHg 93%
22:00 -4°C° 0 mm 0 mps 703 mmHg 92%
23:00 -5°C° 0 mm 0 mps 703 mmHg 92%
Show more